Watford City, ND

7:11 PM CST on February 10, 2016 (GMT -0600)
Watford City

Weather History for KS25 - February, 2013

Change the Weather History Date:

Wednesday, February 20, 2013

  Actual Average (KISN) Record (KISN)
Temperature  
Mean Temperature 8 °F 19 °F  
Max Temperature 17 °F 29 °F 56 °F (1930)
Min Temperature 0 °F 8 °F -33 °F (1918)
Degree Days  
Heating Degree Days 56 46  
Month to date heating degree days 989  
Since 1 July heating degree days 6410  
Cooling Degree Days 0 0  
Month to date cooling degree days 0  
Year to date cooling degree days 0  
Moisture  
Dew Point 0 °F    
Average Humidity 71    
Maximum Humidity 79    
Minimum Humidity 57    
Precipitation  
Precipitation 0.00 in 0.02 in 0.19 in (1969)
Month to date precipitation 0.26  
Year to date precipitation 0.85  
Sea Level Pressure  
Sea Level Pressure 30.01 in    
Wind  
Wind Speed 16 mph (SE)    
Max Wind Speed 26 mph    
Max Gust Speed 36 mph    
Visibility 10 miles    
Events      
T = Trace of Precipitation, MM = Missing Value Source: NWS Daily Summary

Daily Weather History Graph

Daily Weather History Graph

Search for Another Location

Airport or City:

Trip Planner

Search our weather history database for the weather conditions in past years. The results will help you decide how hot, cold, wet, or windy it might be!

Date:

Astronomy

Feb. 20, 2013 Rise Set
Actual Time 7:49 AM CST 6:24 PM CST
Civil Twilight 7:18 AM CST 6:55 PM CST
Nautical Twilight 6:42 AM CST 7:31 PM CST
Astronomical Twilight 6:06 AM CST 8:07 PM CST
Moon 1:34 PM CST (2/20) 4:25 AM CST (2/20)
Length of Visible Light 11h 37m
Length of Day
10h 34m
Waxing Gibbous, 76% of the Moon is Illuminated
Feb 20
Waxing Gibbous
Feb 25
Full
Mar 4
Last Quarter
Mar 11
New
Mar 19
First Quarter

Hourly Weather History & Observations

Time (CST) Temp. Windchill Dew Point Humidity Pressure Visibility Wind Dir Wind Speed Gust Speed Precip Events Conditions
12:15 AM -0.4 °F -23.3 °F -5.8 °F 78% 30.12 in 10.0 mi ESE 21.9 mph 26.5 mph N/A   Clear
12:35 AM 1.4 °F -21.0 °F -5.8 °F 72% 30.11 in 10.0 mi ESE 21.9 mph - N/A   Clear
12:55 AM 1.4 °F -19.9 °F -5.8 °F 72% 30.10 in 10.0 mi ESE 19.6 mph 26.5 mph N/A   Clear
1:15 AM 1.4 °F -18.2 °F -4.0 °F 78% 30.10 in 10.0 mi SE 16.1 mph 25.3 mph N/A   Clear
1:35 AM 1.4 °F -17.6 °F -4.0 °F 78% 30.10 in 10.0 mi ESE 15.0 mph - N/A   Clear
1:55 AM 1.4 °F -18.8 °F -4.0 °F 78% 30.10 in 10.0 mi ESE 17.3 mph 21.9 mph N/A   Clear
2:15 AM 1.4 °F -19.4 °F -4.0 °F 78% 30.09 in 10.0 mi ESE 18.4 mph 24.2 mph N/A   Clear
2:35 AM 1.4 °F -17.6 °F -4.0 °F 78% 30.08 in 10.0 mi SE 15.0 mph - N/A   Clear
2:55 AM 1.4 °F -22.7 °F -4.0 °F 78% 30.07 in 10.0 mi SE 26.5 mph 35.7 mph N/A   Clear
3:15 AM 1.4 °F -21.0 °F -4.0 °F 78% 30.06 in 10.0 mi SE 21.9 mph 31.1 mph N/A   Clear
3:35 AM 1.4 °F -21.0 °F -4.0 °F 78% 30.05 in 10.0 mi SE 21.9 mph 31.1 mph N/A   Clear
3:55 AM 1.4 °F -19.9 °F -4.0 °F 78% 30.05 in 10.0 mi SE 19.6 mph 27.6 mph N/A   Clear
4:15 AM 1.4 °F -21.0 °F -4.0 °F 78% 30.04 in 10.0 mi SE 21.9 mph - N/A   Clear
4:35 AM 1.4 °F -19.9 °F -4.0 °F 78% 30.03 in 10.0 mi SE 19.6 mph 31.1 mph N/A   Clear
4:55 AM 1.4 °F -19.9 °F -4.0 °F 78% 30.04 in 10.0 mi SE 19.6 mph 25.3 mph N/A   Clear
5:15 AM 1.4 °F -18.8 °F -4.0 °F 78% 30.03 in 10.0 mi SE 17.3 mph 24.2 mph N/A   Clear
5:35 AM 1.4 °F -14.5 °F -4.0 °F 78% 30.04 in 10.0 mi SE 10.4 mph 16.1 mph N/A   Clear
5:55 AM 1.4 °F -12.5 °F -5.8 °F 72% 30.04 in 10.0 mi ESE 8.1 mph - N/A   Clear
6:15 AM 1.4 °F -16.1 °F -5.8 °F 72% 30.04 in 10.0 mi SE 12.7 mph - N/A   Clear
6:55 AM 1.4 °F -16.1 °F -5.8 °F 72% 30.04 in 10.0 mi SE 12.7 mph - N/A   Clear
7:15 AM 1.4 °F -15.3 °F -5.8 °F 72% 30.04 in 10.0 mi ESE 11.5 mph - N/A   Clear
7:35 AM 1.4 °F -13.5 °F -5.8 °F 72% 30.04 in 10.0 mi ESE 9.2 mph - N/A   Clear
7:55 AM 1.4 °F -17.6 °F -5.8 °F 72% 30.04 in 10.0 mi SE 15.0 mph - N/A   Clear
8:15 AM 1.4 °F -16.1 °F -5.8 °F 72% 30.04 in 10.0 mi SE 12.7 mph - N/A   Clear
8:35 AM 1.4 °F -18.8 °F -5.8 °F 72% 30.04 in 10.0 mi SE 17.3 mph 20.7 mph N/A   Clear
8:55 AM 1.4 °F -17.6 °F -4.0 °F 78% 30.05 in 10.0 mi SE 15.0 mph 21.9 mph N/A   Clear
9:15 AM 1.4 °F -18.8 °F -4.0 °F 78% 30.04 in 10.0 mi SE 17.3 mph 23.0 mph N/A   Clear
9:35 AM 3.2 °F -15.3 °F -4.0 °F 72% 30.04 in 10.0 mi SE 15.0 mph 21.9 mph N/A   Clear
9:55 AM 3.2 °F -17.1 °F -4.0 °F 72% 30.04 in 10.0 mi SE 18.4 mph 21.9 mph N/A   Clear
10:15 AM 5.0 °F -14.7 °F -4.0 °F 66% 30.04 in 10.0 mi SE 18.4 mph - N/A   Clear
10:35 AM 5.0 °F -14.2 °F -2.2 °F 72% 30.04 in 10.0 mi SE 17.3 mph - N/A   Clear
10:55 AM 5.0 °F -11.6 °F -2.2 °F 72% 30.04 in 10.0 mi SE 12.7 mph - N/A   Clear
11:15 AM 6.8 °F -11.3 °F -2.2 °F 67% 30.04 in 10.0 mi SE 16.1 mph 19.6 mph N/A   Clear
11:35 AM 8.6 °F -7.7 °F -0.4 °F 67% 30.03 in 10.0 mi SE 13.8 mph 23.0 mph N/A   Clear
11:55 AM 8.6 °F -7.7 °F -0.4 °F 67% 30.02 in 10.0 mi SE 13.8 mph - N/A   Clear
12:15 PM 8.6 °F -10.5 °F -0.4 °F 67% 30.02 in 10.0 mi SSE 19.6 mph 23.0 mph N/A   Clear
12:35 PM 10.4 °F -6.6 °F -0.4 °F 62% 30.01 in 10.0 mi SE 16.1 mph 20.7 mph N/A   Clear
12:55 PM 12.2 °F -4.3 °F 1.4 °F 62% 30.00 in 10.0 mi SE 16.1 mph - N/A   Clear
1:15 PM 14.0 °F -2.0 °F 1.4 °F 57% 29.99 in 10.0 mi SE 16.1 mph - N/A   Clear
1:35 PM 14.0 °F -2.5 °F 3.2 °F 62% 29.99 in 10.0 mi SE 17.3 mph - N/A   Clear
1:55 PM 14.0 °F -1.4 °F 5.0 °F 67% 29.98 in 10.0 mi SE 15.0 mph 19.6 mph N/A   Clear
2:15 PM 15.8 °F -0.6 °F 3.2 °F 58% 29.97 in 10.0 mi SE 18.4 mph - N/A   Partly Cloudy
2:35 PM 15.8 °F -0.6 °F 5.0 °F 62% 29.97 in 10.0 mi SE 18.4 mph - N/A   Clear
2:55 PM 15.8 °F -0.2 °F 5.0 °F 62% 29.96 in 10.0 mi SE 17.3 mph 21.9 mph N/A   Clear
3:15 PM 17.6 °F 2.2 °F 5.0 °F 58% 29.96 in 10.0 mi SE 17.3 mph 21.9 mph N/A   Clear
3:35 PM 17.6 °F 1.7 °F 5.0 °F 58% 29.96 in 10.0 mi SE 18.4 mph 23.0 mph N/A   Clear
3:55 PM 17.6 °F 3.2 °F 5.0 °F 58% 29.95 in 10.0 mi SSE 15.0 mph - N/A   Clear
4:15 PM 17.6 °F 2.7 °F 5.0 °F 58% 29.95 in 10.0 mi SSE 16.1 mph 20.7 mph N/A   Clear
4:35 PM 17.6 °F 3.7 °F 5.0 °F 58% 29.95 in 10.0 mi SE 13.8 mph - N/A   Clear
4:55 PM 17.6 °F 4.3 °F 5.0 °F 58% 29.95 in 10.0 mi SE 12.7 mph - N/A   Clear
5:15 PM 17.6 °F 5.0 °F 5.0 °F 58% 29.95 in 10.0 mi SE 11.5 mph - N/A   Clear
5:35 PM 17.6 °F 3.2 °F 6.8 °F 63% 29.95 in 10.0 mi ESE 15.0 mph - N/A   Clear
5:55 PM 15.8 °F 0.9 °F 6.8 °F 68% 29.95 in 10.0 mi SE 15.0 mph - N/A   Clear
6:15 PM 15.8 °F 0.9 °F 5.0 °F 62% 29.95 in 10.0 mi SE 15.0 mph - N/A   Clear
6:35 PM 14.0 °F -0.2 °F 5.0 °F 67% 29.94 in 10.0 mi ESE 12.7 mph - N/A   Clear
6:55 PM 14.0 °F -0.8 °F 5.0 °F 67% 29.95 in 10.0 mi ESE 13.8 mph - N/A   Clear
7:15 PM 14.0 °F -0.2 °F 5.0 °F 67% 29.95 in 10.0 mi ESE 12.7 mph - N/A   Clear
7:35 PM 12.2 °F -1.0 °F 5.0 °F 73% 29.96 in 10.0 mi ESE 10.4 mph - N/A   Clear
7:55 PM 12.2 °F 4.3 °F 5.0 °F 73% 29.96 in 10.0 mi ESE 4.6 mph - N/A   Clear
8:15 PM 12.2 °F - 5.0 °F 73% 29.97 in 10.0 mi Calm Calm - N/A   Clear
8:35 PM 12.2 °F - 5.0 °F 73% 29.97 in 10.0 mi Calm Calm - N/A   Clear
8:55 PM 12.2 °F 6.1 °F 5.0 °F 73% 29.97 in 10.0 mi SE 3.5 mph - N/A   Clear
9:15 PM 12.2 °F 6.1 °F 5.0 °F 73% 29.97 in 10.0 mi ESE 3.5 mph - N/A   Clear
9:35 PM 10.4 °F - 5.0 °F 79% 29.97 in 10.0 mi Calm Calm - N/A   Clear
9:55 PM 10.4 °F 0.8 °F 5.0 °F 79% 29.97 in 10.0 mi SE 5.8 mph - N/A   Clear
10:35 PM 8.6 °F -1.3 °F 3.2 °F 79% 29.98 in 10.0 mi ESE 5.8 mph - N/A   Unknown
10:55 PM 8.6 °F -1.3 °F 3.2 °F 79% 29.98 in 10.0 mi ESE 5.8 mph - N/A   Mostly Cloudy
11:15 PM 8.6 °F -2.6 °F 3.2 °F 79% 29.99 in 10.0 mi SE 6.9 mph - N/A   Partly Cloudy
11:35 PM 8.6 °F -2.6 °F 1.4 °F 73% 29.99 in 10.0 mi SE 6.9 mph - N/A   Clear
11:55 PM 8.6 °F 0.1 °F 1.4 °F 73% 29.99 in 10.0 mi ESE 4.6 mph - N/A   Clear